GW7376 Weather Reports


time (UTC)temp
C
wind
direction
speed
KPH
gust
KPH
rain 1hr
cm
rain 24hr
cm
rain mn
cm
humidity
%
barometer
mb
20260506084136 24 289 3.2 4.8 0.00 0.00 0.00 88 994.3
20260506083539 24 133 1.6 6.4 0.00 0.00 0.00 88 994.1
20260506083037 24 252 3.2 4.8 0.00 0.00 0.00 88 994.1
20260506082435 24 100 0.0 4.8 0.00 0.00 0.00 88 994.0
20260506081837 24 31 1.6 4.8 0.00 0.00 0.00 88 994.0
20260506081236 24 74 1.6 4.8 0.00 0.00 0.00 88 994.2
20260506080735 24 341 0.0 0.0 0.00 0.00 0.00 88 994.3
20260506080235 24 211 0.0 0.0 0.00 0.00 0.00 88 994.1
20260506073435 24 122 0.0 3.2 0.00 0.00 0.00 87 994.3
20260506072838 24 225 3.2 4.8 0.00 0.00 0.00 87 994.4
20260506072337 24 50 0.0 0.0 0.00 0.00 0.00 87 994.5
20260506071738 24 322 0.0 4.8 0.00 0.00 0.00 87 994.1
20260506071152 24 147 0.0 4.8 0.00 0.00 0.00 87 994.3
20260506051139 24 144 0.0 3.2 0.00 0.00 0.00 85 994.8
20260506044628 24 192 0.0 0.0 0.00 0.00 0.00 85 995.1
20260506044027 24 282 0.0 1.6 0.00 0.00 0.00 85 995.0
20260506043526 24 242 0.0 1.6 0.00 0.00 0.00 85 994.9
20260506042927 24 333 0.0 0.0 0.00 0.00 0.00 85 994.8
20260506042327 24 315 0.0 1.6 0.00 0.00 0.00 85 994.6
20260506041729 24 230 0.0 0.0 0.00 0.00 0.00 85 994.6
20260506041228 24 195 0.0 0.0 0.00 0.00 0.00 85 994.7
20260506040727 24 193 0.0 0.0 0.00 0.00 0.00 84 994.5
20260506040140 24 255 0.0 1.6 0.00 0.00 0.00 84 994.5
20260506035628 24 269 0.0 0.0 0.00 0.00 0.00 84 994.3
20260506035029 24 331 0.0 3.2 0.00 0.00 0.00 83 994.1
20260506034526 24 44 0.0 1.6 0.00 0.00 0.00 83 994.1
20260506033938 24 217 0.0 1.6 0.00 0.00 0.00 83 994.1
20260506033431 24 333 0.0 0.0 0.00 0.00 0.00 83 994.0
20260506032927 24 113 0.0 0.0 0.00 0.00 0.00 83 994.0
20260506032429 24 101 3.2 3.2 0.00 0.00 0.00 83 994.1
20260506031926 24 228 1.6 1.6 0.00 0.00 0.00 83 993.9
20260506031338 25 224 0.0 0.0 0.00 0.00 0.00 83 993.9
20260506030828 25 190 0.0 0.0 0.00 0.00 0.00 82 994.0
20260506030326 25 104 0.0 0.0 0.00 0.00 0.00 82 993.8
20260506025827 25 117 0.0 1.6 0.00 0.00 0.00 82 993.9
20260506025326 25 135 0.0 0.0 0.00 0.00 0.00 82 993.8
20260506024727 25 269 0.0 3.2 0.00 0.00 0.00 81 993.6
20260506024126 25 135 0.0 3.2 0.00 0.00 0.00 81 993.6
20260506023527 25 104 0.0 0.0 0.00 0.00 0.00 80 993.5
20260506022926 25 154 0.0 3.2 0.00 0.00 0.00 80 993.6
20260506022428 25 37 0.0 1.6 0.00 0.00 0.00 80 993.5
20260506021829 25 18 1.6 3.2 0.00 0.00 0.00 79 993.4
20260506021326 25 244 1.6 1.6 0.00 0.00 0.00 79 993.3
20260506020727 25 4 0.0 3.2 0.00 0.00 0.00 78 993.3
20260506020226 25 185 0.0 3.2 0.00 0.00 0.00 78 992.9
20260506015626 25 198 1.6 1.6 0.00 0.00 0.00 79 993.1
20260506015127 25 193 0.0 1.6 0.00 0.00 0.00 78 993.0
20260506014626 25 326 0.0 3.2 0.00 0.00 0.00 79 993.0
20260506014037 25 345 0.0 3.2 0.00 0.00 0.00 78 992.9
20260506013527 25 15 0.0 1.6 0.00 0.00 0.00 78 992.7
20260506012927 26 218 0.0 1.6 0.00 0.00 0.00 78 992.5
20260506012328 26 55 0.0 1.6 0.00 0.00 0.00 78 992.7
20260506011826 26 156 0.0 3.2 0.00 0.00 0.00 78 992.6
20260506011327 26 212 0.0 3.2 0.00 0.00 0.00 78 992.5
20260506010837 26 237 0.0 1.6 0.00 0.00 0.00 77 992.5
20260506010326 26 192 0.0 3.2 0.00 0.00 0.00 77 992.4
20260506005825 26 204 1.6 1.6 0.00 0.00 0.00 77 992.3
20260506005327 26 44 0.0 3.2 0.00 0.00 0.00 77 992.3
20260506004826 26 32 0.0 3.2 0.00 0.00 0.00 76 992.3
20260506004228 26 224 0.0 3.2 0.00 0.00 0.00 76 992.1
20260506003725 26 234 1.6 1.6 0.00 0.00 0.00 76 992.0
20260506003127 26 287 0.0 3.2 0.00 0.00 0.00 76 992.2
20260506002526 26 230 0.0 3.2 0.00 0.00 0.00 76 992.2
20260506002029 26 224 0.0 1.6 0.00 0.00 0.00 75 992.0
20260506001536 26 230 0.0 1.6 0.00 0.00 0.00 75 992.2
20260506000939 26 357 0.0 3.2 0.00 0.00 0.00 75 992.0
20260506000427 27 27 0.0 1.6 0.00 0.00 0.00 74 992.2
20260505235926 27 266 0.0 1.6 0.00 0.00 0.00 74 992.2
20260505235337 27 221 0.0 1.6 0.00 0.00 0.00 73 992.0
20260505234827 27 315 0.0 3.2 0.00 0.00 0.00 73 992.0
20260505234326 27 352 0.0 3.2 0.00 0.00 0.00 73 992.2
20260505233726 27 324 0.0 1.6 0.00 0.00 0.00 73 992.0
20260505233226 27 315 0.0 0.0 0.00 0.00 0.00 72 992.0
20260505232627 27 315 0.0 3.2 0.00 0.00 0.00 72 992.1
20260505232138 27 180 0.0 3.2 0.00 0.00 0.00 71 992.2
20260505231627 27 202 1.6 4.8 0.00 0.00 0.00 71 992.2
20260505231030 27 44 0.0 3.2 0.00 0.00 0.00 71 992.2
20260505230428 27 311 1.6 3.2 0.00 0.00 0.00 73 992.2
20260505225826 27 294 0.0 3.2 0.00 0.00 0.00 72 992.1
20260505225326 27 67 0.0 1.6 0.00 0.00 0.00 72 992.2
20260505224729 27 217 0.0 3.2 0.00 0.00 0.00 72 992.2
20260505204727 28 68 6.4 8.0 0.00 0.00 0.00 67 992.9
20260505204137 28 233 4.8 4.8 0.00 0.00 0.00 69 992.9
20260505203627 28 38 6.4 6.4 0.00 0.00 0.00 69 993.0
20260505203136 28 223 4.8 6.4 0.00 0.00 0.00 69 993.4
20260505202528 28 64 0.0 6.4 0.00 0.00 0.00 69 993.5
20260505202026 28 275 0.0 4.8 0.00 0.00 0.00 71 993.3
20260505201428 28 202 3.2 4.8 0.00 0.00 0.00 70 993.7
20260505200929 28 60 0.0 6.4 0.00 0.00 0.00 70 993.5
20260505200331 28 347 3.2 6.4 0.00 0.00 0.00 72 993.4
20260505195826 27 320 0.0 6.4 0.00 0.00 0.00 72 993.6
20260505195339 27 278 0.0 6.4 0.00 0.00 0.00 72 993.5
20260505194729 27 257 3.2 6.4 0.00 0.00 0.00 72 993.6
20260505194231 27 208 6.4 8.0 0.00 0.00 0.00 73 993.7
20260505193627 27 162 1.6 4.8 0.00 0.00 0.00 75 993.9
20260505193029 27 193 3.2 3.2 0.00 0.00 0.00 74 994.1
20260505192429 27 208 0.0 4.8 0.00 0.00 0.00 74 994.2
20260505191836 27 217 1.6 4.8 0.00 0.00 0.00 73 994.0
20260505191226 27 189 3.2 3.2 0.00 0.00 0.00 73 993.8
20260505190736 27 159 1.6 6.4 0.00 0.00 0.00 72 994.1
20260505190026 27 212 0.0 6.4 0.00 0.00 0.00 73 993.6
20260505185529 27 311 0.0 6.4 0.00 0.00 0.00 74 994.0
20260505184930 26 257 3.2 4.8 0.00 0.00 0.00 74 994.1
20260505184330 27 197 0.0 3.2 0.00 0.00 0.00 74 994.2
20260505183727 27 276 1.6 6.4 0.00 0.00 0.00 73 994.1
20260505183143 27 208 1.6 6.4 0.00 0.00 0.00 75 994.2
20260505182637 26 220 1.6 4.8 0.00 0.00 0.00 74 994.2
20260505182027 26 335 0.0 6.4 0.00 0.00 0.00 75 994.5
20260505181526 26 224 1.6 6.4 0.00 0.00 0.00 75 994.4
20260505180928 26 201 1.6 6.4 0.00 0.00 0.00 76 994.4
20260505180332 26 240 3.2 6.4 0.00 0.00 0.00 75 994.6
20260505175826 26 224 6.4 8.0 0.00 0.00 0.00 77 994.4
20260505175329 26 302 1.6 6.4 0.00 0.00 0.00 77 994.6
20260505174727 26 323 1.6 8.0 0.00 0.00 0.00 76 994.8
20260505174127 26 307 0.0 6.4 0.00 0.00 0.00 77 994.6
20260505173629 26 347 0.0 6.4 0.00 0.00 0.00 77 994.5
20260505173126 26 280 3.2 3.2 0.00 0.00 0.00 78 994.7
20260505172538 25 84 1.6 6.4 0.00 0.00 0.00 78 994.9
20260505171928 26 288 3.2 8.0 0.00 0.00 0.00 79 994.8
20260505171428 25 267 3.2 8.0 0.00 0.00 0.00 78 994.8
20260505170828 25 138 0.0 6.4 0.00 0.00 0.00 79 994.8
20260505170227 25 252 3.2 6.4 0.00 0.00 0.00 79 994.8
20260505165426 25 299 4.8 4.8 0.00 0.00 0.00 80 994.8
20260505164927 25 307 0.0 6.4 0.00 0.00 0.00 81 994.9
20260505164329 25 238 1.6 4.8 0.00 0.00 0.00 81 994.9
20260505163837 25 323 6.4 9.7 0.00 0.00 0.00 81 994.9
20260505163326 25 220 3.2 4.8 0.00 0.00 0.00 81 994.9
20260505162727 25 104 3.2 6.4 0.00 0.00 0.00 82 994.9
20260505162227 25 202 6.4 8.0 0.00 0.00 0.00 82 995.1
20260505161627 24 34 1.6 3.2 0.00 0.00 0.00 82 995.1
20260505161027 24 162 3.2 4.8 0.00 0.00 0.00 83 995.1
20260505160426 24 248 1.6 4.8 0.00 0.00 0.00 83 995.0
20260505153028 23 232 3.2 3.2 0.00 0.00 0.00 85 994.8
20260505152427 23 235 3.2 4.8 0.00 0.00 0.00 85 994.8
20260505151929 23 198 1.6 3.2 0.00 0.00 0.00 85 994.8
20260505151427 23 348 0.0 4.8 0.00 0.00 0.00 85 994.6
20260505150826 23 272 1.6 4.8 0.00 0.00 0.00 84 994.8
20260505150326 23 25 0.0 3.2 0.00 0.00 0.00 85 994.7
20260505140138 22 238 3.2 4.8 0.00 0.00 0.00 87 994.5
20260505130227 22 238 1.6 3.2 0.00 0.00 0.00 88 994.7
20260505125029 22 231 1.6 4.8 0.00 0.00 0.00 89 994.8
20260505124527 22 281 0.0 4.8 0.00 0.00 0.00 88 994.6
20260505123926 21 290 0.0 3.2 0.00 0.00 0.00 88 994.4
20260505123426 21 336 1.6 6.4 0.00 0.00 0.00 88 994.3
20260505122842 21 123 0.0 6.4 0.00 0.00 0.00 88 994.6
20260505122351 21 12 1.6 4.8 0.00 0.00 0.00 88 994.4
20260505121745 21 77 0.0 3.2 0.00 0.00 0.00 88 994.3
20260505121142 21 240 0.0 3.2 0.00 0.00 0.00 88 993.9
20260505120643 21 326 1.6 3.2 0.00 0.00 0.00 88 994.0
20260505120151 21 53 3.2 4.8 0.00 0.00 0.00 88 994.3
20260505115541 21 193 3.2 4.8 0.00 0.00 0.00 88 994.1
20260505115041 21 297 1.6 6.4 0.00 0.00 0.00 88 994.3
20260505114451 21 166 1.6 6.4 0.00 0.00 0.00 88 994.2
20260505113851 21 165 1.6 6.4 0.00 0.00 0.00 88 994.2
20260505113251 21 310 1.6 4.8 0.00 0.00 0.00 88 994.1
20260505112742 21 241 0.0 4.8 0.00 0.00 0.00 88 994.4
20260505112142 21 89 0.0 4.8 0.00 0.00 0.00 88 994.6
20260505111642 21 235 3.2 6.4 0.00 0.00 0.00 88 994.2
20260505111144 21 211 1.6 6.4 0.00 0.00 0.00 88 993.9
20260505110543 21 178 3.2 6.4 0.00 0.00 0.00 88 993.9
20260505101641 21 171 3.2 6.4 0.00 0.00 0.00 88 994.2
20260505101051 21 140 0.0 6.4 0.00 0.00 0.00 88 994.2
20260505100540 21 255 4.8 4.8 0.00 0.00 0.00 88 994.1
20260505100041 21 202 1.6 4.8 0.00 0.00 0.00 88 994.1
20260505095441 21 196 3.2 4.8 0.00 0.00 0.00 88 994.2
20260505094940 21 337 3.2 6.4 0.00 0.00 0.00 88 994.5
20260505094341 21 186 3.2 3.2 0.00 0.00 0.00 88 994.1
20260505093841 21 117 3.2 4.8 0.00 0.00 0.00 87 994.4
20260505093241 21 48 6.4 6.4 0.00 0.00 0.00 88 994.3
20260505092652 21 40 1.6 4.8 0.00 0.00 0.00 87 994.5
20260505092041 21 333 3.2 4.8 0.00 0.00 0.00 87 994.6
20260505091441 21 91 1.6 4.8 0.00 0.00 0.00 87 994.6
20260505090941 21 110 3.2 6.4 0.00 0.00 0.00 87 994.8
20260505090343 21 236 3.2 4.8 0.00 0.00 0.00 87 994.5
20260505085843 21 306 1.6 4.8 0.00 0.00 0.00 86 994.6
20260505085252 21 52 1.6 4.8 0.00 0.00 0.00 86 994.6
20260505084742 21 258 4.8 6.4 0.00 0.00 0.00 86 994.9